Skip Navigation Linkswww.weather.gov 
NOAA logo - Click to go to the NOAA homepage National Weather Service Forecast Office   NWS logo - Click to go to the NWS homepage    
Los Angeles, California
navigation bar decoration      
spacer
Printer Friendly  |   Go Back  |  Version: Current   1   2   3   4   5   6   7   8   9   10   |  Font:  A A A  |  
This version is NOT current and may no longer be valid!

HOURLY WEATHER ROUNDUP
 
 ASUS46 KSTO 031404
RWRCA

NORTHERN AND CENTRAL CA REGIONAL WEATHER ROUNDUP
NATIONAL WEATHER SERVICE SACRAMENTO CA
600 AM PST TUE MAR 03 2015

NOTE: FAIR INDICATES FEW OR NO CLOUDS BELOW 12,000 FEET WITH NO
SIGNIFICANT WEATHER AND/OR OBSTRUCTIONS TO VISIBILITY.

CAZ001-003-031500-
NORTHWEST AREA

CITY SKY/WX TMP DP RH WIND PRES REMARKS
CRESCENT CITY CLEAR 39 34 82 NE6 30.09R WCI 35
UKIAH CLEAR 35 32 88 CALM 30.04R
$$

CAZ006-505>513-031500-
BAY AREA

CITY SKY/WX TMP DP RH WIND PRES REMARKS
SANTA ROSA CLEAR 38 37 97 N6 30.00S WCI 33
SAN RAFAEL N/A 44 MM MM MISG
NAPA CLEAR 36 34 92 CALM 30.02R
CONCORD CLEAR 42 39 89 SE3 30.02R
OAKLAND CITY N/A 46 MM MM MISG
OAKLAND CLEAR 43 39 86 CALM 30.01S
SAN FRAN CITY N/A 50 MM 83 MISG
SAN FRAN ARPT CLEAR 48 45 89 NW3 30.01R
LIVERMORE CLEAR 40 36 86 CALM 30.01R
HAYWARD CLEAR 45 39 79 E5 30.01R
REDWOOD CITY N/A MM MM MM MISG
MOFFETT ARPT CLEAR 42 39 89 CALM 30.02R
SAN JOSE ARPT CLEAR 41 37 86 CALM 30.01R
$$
CAZ034-037-514>518-031500-
CENTRAL COAST

CITY SKY/WX TMP DP RH WIND PRES REMARKS
WATSONVILLE CLEAR 41 38 89 NW3 30.01S
SALINAS CLEAR 41 37 86 SE7 30.01S
MONTEREY CLEAR 43 38 82 E7 30.00S
SAN LUIS OBISP PTCLDY 38 37 97 E5 29.98S WCI 34
SANTA MARIA CLEAR 39 36 89 CALM 29.98R
$$
CAZ015-016-031500-
NORTHERN SACRAMENTO VALLEY

CITY SKY/WX TMP DP RH WIND PRES REMARKS
REDDING CLEAR 41 37 86 CALM 30.03S
RED BLUFF CLEAR 39 35 86 NW8 30.04R WCI 33
OROVILLE CLEAR 39 35 86 CALM 30.03S
$$
CAZ016>018-031500-
SOUTHERN SACRAMENTO VALLEY

CITY SKY/WX TMP DP RH WIND PRES REMARKS
AUBURN CLEAR 39 36 87 E3 30.00R
BEALE AFB CLEAR 39 39 100 NW6 30.01R WCI 35
LINCOLN FAIR 36 34 93 NW5 30.00R WCI 32
MARYSVILLE CLEAR 39 37 92 CALM 30.03R
SAC INTL ARPT CLEAR 38 36 92 NW6 30.02R WCI 33
MATHER AIRPORT CLEAR 37 36 93 CALM 30.01R
DOWNTOWN SAC N/A 42 MM MM MISG
SAC EXEC ARPT CLEAR 41 38 89 CALM 30.02R
VACAVILLE CLEAR 39 36 89 CALM 30.03R
TRAVIS AFB CLEAR 37 36 96 CALM 30.00R
$$
CAZ019>021-031500-
SAN JOAQUIN VALLEY

CITY SKY/WX TMP DP RH WIND PRES REMARKS
STOCKTON CLEAR 39 37 92 CALM 30.00R
MODESTO CLEAR 42 38 85 CALM 30.00R
MERCED FOG 34 34 100 SW3 29.99S VSB 3/4
LEMOORE CLEAR 35 34 96 NW7 30.00S WCI 29
FRESNO CLEAR 42 39 89 CALM 29.99F
HANFORD CLEAR 38 36 92 CALM 30.00R FOG
PORTERVILLE CLEAR 36 30 80 SW5 29.98S WCI 32
BAKERSFIELD CLOUDY 46 42 86 CALM 29.98R
$$
CAZ011-012-071-031500-
NORTHERN MOUNTAINS

CITY SKY/WX TMP DP RH WIND PRES REMARKS
YREKA CLEAR 24 21 88 CALM N/A
MOUNT SHASTA CLEAR 29 25 85 CALM 30.04R
ALTURAS MOCLDY 28 17 63 N7 30.03R WCI 21
$$
CAZ011-012-071-031500-
SIERRA NEVADA MTNS

CITY SKY/WX TMP DP RH WIND PRES REMARKS
BLUE CANYON CLEAR 33 20 58 NE3 29.97S
TAHOE VLY ARPT MOCLDY 20 14 77 S3 29.95R
MAMMOTH LAKES FAIR 18 14 86 W3 29.92S
$$



Webmaster
US Dept of Commerce
National Oceanic and Atmospheric Administration
National Weather Service
Los Angeles/Oxnard Weather Forecast Office
520 North Elevar Street
Oxnard, CA 93030

Tel: (805) 988-6610

Disclaimer
Information Quality
Credits
Glossary
Organization
Privacy Policy
Freedom of Information Act
About Us
Career Opportunities